Back to catalog

FENGYUN 1C DEB

LostPO
NORAD 31635·DEBRIS·🇨🇳 China

Launched May 10, 1999 from Taiyuan Satellite Launch Center

Loading…

Next Passes (next 24 hours)

TLE

StaleSource: Space-Track

Epoch: Dec 24, 2020, 01:26 UTC

1 31635U 99025CAR 20359.05993472  .00001024  00000-0  38102-3 0  9995
2 31635  99.4219  78.4405 0053400 192.8800 167.1021 14.33740113710678

Track FENGYUN 1C DEB in real time with AllMySat

Download on the App Store